TimeEDT,TemperatureF,Dew PointF,Humidity,Sea Level PressureIn,VisibilityMPH,Wind Direction,Wind SpeedMPH,Gust SpeedMPH,PrecipitationIn,Events,Conditions,WindDirDegrees,DateUTC
12:54 AM,73.9,69.1,85,29.96,8.0,SSW,3.5,-,N/A,,Clear,210,2012-10-03 04:54:00
1:43 AM,73.9,69.1,85,29.98,6.0,SSW,6.9,-,N/A,,Haze,210,2012-10-03 05:43:00
1:50 AM,73.4,69.8,88,29.98,5.0,SSW,6.9,-,N/A,,Haze,210,2012-10-03 05:50:00
1:54 AM,73.9,69.1,85,29.97,5.0,SSW,6.9,-,N/A,,Haze,210,2012-10-03 05:54:00
2:08 AM,73.9,69.1,85,29.98,5.0,SSW,6.9,-,N/A,,Haze,210,2012-10-03 06:08:00
2:54 AM,73.0,69.1,87,29.99,4.0,SSW,8.1,-,N/A,,Overcast,210,2012-10-03 06:54:00
3:54 AM,73.9,69.1,85,30.00,5.0,SSW,9.2,-,N/A,,Haze,210,2012-10-03 07:54:00
4:36 AM,73.9,69.1,85,30.01,4.0,SW,6.9,-,N/A,,Haze,220,2012-10-03 08:36:00
4:54 AM,73.9,69.1,85,30.01,5.0,SSW,5.8,-,N/A,,Haze,210,2012-10-03 08:54:00
5:54 AM,73.9,70.0,87,30.02,5.0,SW,3.5,-,N/A,,Overcast,230,2012-10-03 09:54:00
6:16 AM,75.0,70.0,84,30.03,8.0,West,4.6,-,N/A,,Scattered Clouds,260,2012-10-03 10:16:00
6:54 AM,73.9,69.1,85,30.03,8.0,SW,3.5,-,N/A,,Clear,230,2012-10-03 10:54:00
7:54 AM,77.0,70.0,79,30.05,10.0,WSW,6.9,-,N/A,,Mostly Cloudy,250,2012-10-03 11:54:00
8:54 AM,80.1,71.1,74,30.06,10.0,West,9.2,-,N/A,,Scattered Clouds,280,2012-10-03 12:54:00
9:54 AM,82.9,71.1,67,30.08,10.0,West,9.2,-,N/A,,Mostly Cloudy,280,2012-10-03 13:54:00
10:54 AM,84.0,71.1,65,30.08,10.0,West,6.9,-,N/A,,Mostly Cloudy,270,2012-10-03 14:54:00
11:54 AM,84.0,71.1,65,30.09,10.0,West,6.9,-,N/A,,Mostly Cloudy,260,2012-10-03 15:54:00
12:54 PM,84.0,70.0,63,30.08,10.0,NW,3.5,-,N/A,,Mostly Cloudy,310,2012-10-03 16:54:00
1:54 PM,82.0,71.1,69,30.08,10.0,SSW,9.2,-,N/A,,Clear,210,2012-10-03 17:54:00
2:54 PM,84.0,66.0,55,30.07,10.0,West,4.6,-,N/A,,Clear,280,2012-10-03 18:54:00
3:54 PM,82.0,70.0,67,30.08,10.0,SW,4.6,-,N/A,,Clear,230,2012-10-03 19:54:00
4:54 PM,80.1,71.1,74,30.07,10.0,SSW,4.6,-,N/A,,Clear,200,2012-10-03 20:54:00
5:54 PM,77.0,70.0,79,30.08,10.0,SSW,8.1,-,N/A,,Clear,200,2012-10-03 21:54:00
6:54 PM,75.9,70.0,82,30.09,10.0,SW,5.8,-,N/A,,Clear,220,2012-10-03 22:54:00
7:54 PM,75.9,70.0,82,30.10,10.0,SW,8.1,-,N/A,,Partly Cloudy,220,2012-10-03 23:54:00
8:54 PM,75.9,70.0,82,30.12,10.0,SW,8.1,-,N/A,,Clear,220,2012-10-04 00:54:00
9:54 PM,75.9,70.0,82,30.12,10.0,SW,4.6,-,N/A,,Partly Cloudy,220,2012-10-04 01:54:00
10:54 PM,75.0,69.1,82,30.12,9.0,SSW,5.8,-,N/A,,Clear,200,2012-10-04 02:54:00
11:54 PM,75.0,69.1,82,30.12,8.0,SSW,4.6,-,N/A,,Partly Cloudy,210,2012-10-04 03:54:00